UTA186 UWUU-USMU

Flight info

Callsign UTA186
Flight time N/A
Altitude 35000
Route IPROK3N IPROK P85 TUNLU P135 ANATU L992 NAMOL T376 UTORA A925 HMN R124 LARTU W77 REMKI REMKI5E
Aircraft B735/M-SDFHIW/S

Departure

Time 2026-05-08 10:50
Airport Ufa International Airport (UWUU)

Arrival

Time N/A
Airport Novy Urengoy Airport (USMU)
Time Latitude Longitude Altitude Speed Heading
2026-05-08 10:32 54.56410 55.88254 450 ft 2 kts 150°
2026-05-08 10:32 54.56410 55.88253 450 ft 4 kts 150°
2026-05-08 10:36 54.56399 55.88264 450 ft 5 kts 150°
2026-05-08 10:36 54.56361 55.88301 450 ft 7 kts 151°
2026-05-08 10:36 54.56314 55.88345 448 ft 8 kts 151°
2026-05-08 10:37 54.56263 55.88395 450 ft 9 kts 150°
2026-05-08 10:37 54.56209 55.88447 449 ft 9 kts 150°
2026-05-08 10:37 54.56156 55.88498 450 ft 9 kts 151°
2026-05-08 10:37 54.56102 55.88550 449 ft 9 kts 150°
2026-05-08 10:38 54.56048 55.88603 450 ft 9 kts 150°
2026-05-08 10:38 54.55994 55.88655 449 ft 9 kts 152°
2026-05-08 10:38 54.55942 55.88705 448 ft 9 kts 150°
2026-05-08 10:38 54.55889 55.88755 447 ft 8 kts 150°
2026-05-08 10:39 54.55837 55.88805 450 ft 9 kts 151°
2026-05-08 10:39 54.55785 55.88855 449 ft 9 kts 150°
2026-05-08 10:39 54.55731 55.88907 449 ft 9 kts 150°
2026-05-08 10:39 54.55677 55.88960 449 ft 9 kts 150°
2026-05-08 10:40 54.55622 55.89013 449 ft 9 kts 150°
2026-05-08 10:40 54.55567 55.89066 449 ft 9 kts 151°
2026-05-08 10:40 54.55511 55.89118 449 ft 9 kts 151°
2026-05-08 10:40 54.55455 55.89171 449 ft 9 kts 151°
2026-05-08 10:41 54.55399 55.89225 448 ft 9 kts 151°
2026-05-08 10:41 54.55344 55.89279 450 ft 9 kts 151°
2026-05-08 10:41 54.55288 55.89333 449 ft 9 kts 150°
2026-05-08 10:41 54.55232 55.89386 449 ft 9 kts 150°
2026-05-08 10:42 54.55195 55.89422 448 ft 9 kts 150°
2026-05-08 10:42 54.55139 55.89476 450 ft 9 kts 150°
2026-05-08 10:42 54.55084 55.89530 449 ft 9 kts 151°
2026-05-08 10:42 54.55028 55.89584 449 ft 9 kts 151°
2026-05-08 10:43 54.54971 55.89634 449 ft 9 kts 165°
2026-05-08 10:43 54.54914 55.89610 449 ft 9 kts 210°
2026-05-08 10:43 54.54863 55.89557 448 ft 9 kts 211°
2026-05-08 10:43 54.54812 55.89502 450 ft 9 kts 211°
2026-05-08 10:44 54.54758 55.89444 449 ft 8 kts 216°
2026-05-08 10:44 54.54721 55.89370 449 ft 9 kts 234°
2026-05-08 10:44 54.54693 55.89282 450 ft 8 kts 250°
2026-05-08 10:44 54.54674 55.89188 449 ft 9 kts 251°
2026-05-08 10:45 54.54655 55.89089 450 ft 9 kts 252°
2026-05-08 10:45 54.54635 55.88987 448 ft 9 kts 250°
2026-05-08 10:45 54.54613 55.88887 450 ft 9 kts 250°
2026-05-08 10:45 54.54592 55.88786 448 ft 9 kts 250°
2026-05-08 10:46 54.54571 55.88683 450 ft 9 kts 250°
2026-05-08 10:46 54.54550 55.88579 448 ft 9 kts 251°
2026-05-08 10:46 54.54530 55.88474 448 ft 9 kts 251°
2026-05-08 10:46 54.54508 55.88372 448 ft 9 kts 250°
2026-05-08 10:47 54.54488 55.88271 450 ft 9 kts 251°
2026-05-08 10:47 54.54467 55.88169 450 ft 9 kts 249°
2026-05-08 10:47 54.54446 55.88069 450 ft 9 kts 250°
2026-05-08 10:47 54.54426 55.87969 449 ft 9 kts 252°
2026-05-08 10:48 54.54407 55.87868 450 ft 8 kts 250°
2026-05-08 10:48 54.54393 55.87783 451 ft 7 kts 271°
2026-05-08 10:48 54.54421 55.87723 449 ft 6 kts 330°
2026-05-08 10:48 54.54516 55.87632 452 ft 41 kts 330°
2026-05-08 10:49 54.54964 55.87199 449 ft 101 kts 330°
2026-05-08 10:49 54.55712 55.86478 449 ft 145 kts 330°
2026-05-08 10:49 54.56710 55.85525 526 ft 180 kts 331°
2026-05-08 10:49 54.57832 55.84427 984 ft 183 kts 331°
2026-05-08 10:50 54.58967 55.83334 1555 ft 194 kts 329°
2026-05-08 10:50 54.60202 55.82205 2408 ft 202 kts 331°
2026-05-08 10:50 54.61367 55.81057 3710 ft 191 kts 334°
2026-05-08 10:50 54.62610 55.79909 4291 ft 214 kts 332°
2026-05-08 10:51 54.64092 55.79316 4929 ft 230 kts
2026-05-08 10:51 54.65533 55.80536 5753 ft 239 kts 46°
2026-05-08 10:51 54.66437 55.83038 6476 ft 257 kts 59°
2026-05-08 10:51 54.67784 55.85265 7077 ft 275 kts 32°
2026-05-08 10:52 54.69370 55.87006 8398 ft 270 kts 35°
2026-05-08 10:52 54.70923 55.88990 9209 ft 285 kts 39°
2026-05-08 10:52 54.72481 55.91180 10030 ft 296 kts 40°
2026-05-08 10:52 54.74099 55.93515 10862 ft 308 kts 40°
2026-05-08 10:53 54.75773 55.95907 11838 ft 314 kts 39°
2026-05-08 10:53 54.77476 55.98326 12797 ft 320 kts 39°
2026-05-08 10:53 54.79162 56.00716 13689 ft 325 kts 39°
2026-05-08 10:53 54.80920 56.03215 14672 ft 328 kts 39°
2026-05-08 10:54 54.82692 56.05737 15570 ft 333 kts 39°
2026-05-08 10:54 54.84499 56.08311 16473 ft 338 kts 39°
2026-05-08 10:54 54.86327 56.10918 17366 ft 341 kts 39°
2026-05-08 10:54 54.88172 56.13552 18217 ft 347 kts 39°
2026-05-08 10:55 54.90048 56.16228 19019 ft 352 kts 40°
2026-05-08 10:55 54.91951 56.18947 19812 ft 357 kts 39°
2026-05-08 10:55 54.93883 56.21701 20569 ft 362 kts 40°
2026-05-08 10:55 54.95840 56.24503 21329 ft 366 kts 39°
2026-05-08 10:56 54.97828 56.27328 22012 ft 372 kts 39°
2026-05-08 10:56 54.99853 56.30179 22713 ft 376 kts 38°
2026-05-08 10:56 55.02073 56.32665 23324 ft 383 kts 29°
2026-05-08 10:56 55.04440 56.34822 24030 ft 386 kts 28°
2026-05-08 10:57 55.06817 56.37048 24709 ft 389 kts 29°
2026-05-08 10:57 55.09181 56.39408 25315 ft 394 kts 31°
2026-05-08 10:57 55.13919 56.44343 26616 ft 399 kts 31°
2026-05-08 10:58 55.16307 56.46832 27255 ft 400 kts 31°
2026-05-08 10:58 55.18712 56.49311 27855 ft 403 kts 31°
2026-05-08 10:58 55.21140 56.51810 28393 ft 407 kts 31°
2026-05-08 10:58 55.23602 56.54351 28721 ft 417 kts 31°
2026-05-08 10:59 55.26142 56.56982 28908 ft 429 kts 31°
2026-05-08 10:59 55.28691 56.59606 29507 ft 430 kts 31°
2026-05-08 10:59 55.31273 56.62270 30195 ft 429 kts 31°
2026-05-08 10:59 55.33853 56.64939 30731 ft 432 kts 31°
2026-05-08 11:00 55.36441 56.67621 31281 ft 433 kts 31°
2026-05-08 11:00 55.39033 56.70302 31950 ft 432 kts 31°
2026-05-08 11:00 55.41622 56.72990 32571 ft 430 kts 31°
2026-05-08 11:00 55.44196 56.75667 33095 ft 431 kts 31°
2026-05-08 11:01 55.46782 56.78350 33648 ft 430 kts 31°
2026-05-08 11:01 55.49318 56.80985 34179 ft 429 kts 31°
2026-05-08 11:01 55.51912 56.83665 34430 ft 433 kts 30°
2026-05-08 11:01 55.54502 56.86372 34665 ft 431 kts 31°
2026-05-08 11:02 55.57073 56.89060 34833 ft 430 kts 30°
2026-05-08 11:02 55.62229 56.94430 34865 ft 429 kts 30°
2026-05-08 11:03 55.67340 56.99771 34870 ft 424 kts 31°
2026-05-08 11:03 55.72411 57.05066 34872 ft 423 kts 30°
2026-05-08 11:04 55.77508 57.10394 34887 ft 432 kts 30°
2026-05-08 11:04 55.82797 57.15916 34884 ft 449 kts 30°
2026-05-08 11:05 55.88196 57.21618 34877 ft 450 kts 30°
2026-05-08 11:05 55.93567 57.27284 34880 ft 447 kts 32°
2026-05-08 11:05 55.96054 57.30594 34861 ft 446 kts 44°
2026-05-08 11:06 55.98012 57.34879 34878 ft 446 kts 60°
2026-05-08 11:06 56.00398 57.45112 34889 ft 450 kts 70°
2026-05-08 11:07 56.02895 57.55419 34885 ft 453 kts 64°
2026-05-08 11:07 56.05684 57.65518 34882 ft 451 kts 64°
2026-05-08 11:08 56.08373 57.75548 34893 ft 450 kts 65°
2026-05-08 11:08 56.11047 57.85705 34892 ft 451 kts 65°
2026-05-08 11:09 56.13722 57.95890 34892 ft 451 kts 65°
2026-05-08 11:09 56.16346 58.06112 34891 ft 451 kts 66°
2026-05-08 11:10 56.18970 58.16330 34891 ft 451 kts 65°
2026-05-08 11:10 56.21582 58.26571 34901 ft 451 kts 65°
2026-05-08 11:11 56.24207 58.36837 34900 ft 452 kts 65°
2026-05-08 11:11 56.26838 58.47125 34903 ft 454 kts 65°
2026-05-08 11:12 56.29465 58.57476 34901 ft 455 kts 66°
2026-05-08 11:12 56.32059 58.67851 34904 ft 455 kts 65°
2026-05-08 11:13 56.34665 58.78260 34909 ft 455 kts 66°
2026-05-08 11:13 56.37272 58.88678 34912 ft 457 kts 65°
2026-05-08 11:14 56.39884 58.99134 34916 ft 457 kts 66°
2026-05-08 11:14 56.42492 59.09586 34919 ft 457 kts 65°
2026-05-08 11:15 56.45146 59.20027 34919 ft 458 kts 65°
2026-05-08 11:15 56.47833 59.30488 34898 ft 459 kts 65°
2026-05-08 11:16 56.50509 59.40945 34899 ft 457 kts 65°
2026-05-08 11:16 56.53165 59.51331 34900 ft 457 kts 65°
2026-05-08 11:17 56.55841 59.61859 34912 ft 458 kts 65°
2026-05-08 11:17 56.58509 59.72286 34910 ft 459 kts 65°
2026-05-08 11:18 56.61193 59.82793 34909 ft 459 kts 65°
2026-05-08 11:18 56.63866 59.93302 34909 ft 458 kts 65°
2026-05-08 11:19 56.66530 60.03820 34911 ft 458 kts 65°
2026-05-08 11:19 56.69190 60.14387 34912 ft 460 kts 65°
2026-05-08 11:20 56.71871 60.24968 34910 ft 461 kts 65°
2026-05-08 11:20 56.74507 60.35600 34910 ft 461 kts 66°
2026-05-08 11:21 56.77081 60.46328 34914 ft 461 kts 66°
2026-05-08 11:21 56.79667 60.57035 34921 ft 462 kts 66°
2026-05-08 11:22 56.82267 60.67780 34919 ft 463 kts 66°
2026-05-08 11:22 56.84870 60.78537 34919 ft 463 kts 66°
2026-05-08 11:23 56.87475 60.89294 34918 ft 464 kts 65°
2026-05-08 11:23 56.91023 60.99007 34899 ft 461 kts 39°
2026-05-08 11:23 56.93668 61.02267 34943 ft 457 kts 25°
2026-05-08 11:24 56.96535 61.04757 34927 ft 458 kts 22°
2026-05-08 11:24 57.02178 61.10236 34911 ft 459 kts 29°
2026-05-08 11:25 57.07606 61.16444 34909 ft 459 kts 30°
2026-05-08 11:25 57.13036 61.22546 34912 ft 458 kts 28°
2026-05-08 11:26 57.18524 61.28574 34909 ft 459 kts 28°
2026-05-08 11:26 57.24018 61.34652 34909 ft 461 kts 28°
2026-05-08 11:27 57.29468 61.40727 34909 ft 461 kts 28°
2026-05-08 11:27 57.34942 61.46925 34910 ft 461 kts 29°
2026-05-08 11:28 57.40414 61.53136 34910 ft 462 kts 29°
2026-05-08 11:28 57.45897 61.59348 34920 ft 462 kts 28°
2026-05-08 11:29 57.51374 61.65596 34918 ft 462 kts 28°
2026-05-08 11:29 57.55968 61.70858 34919 ft 462 kts 28°
2026-05-08 11:30 57.61402 61.77098 34920 ft 464 kts 30°
2026-05-08 11:30 57.66484 61.84567 34935 ft 468 kts 42°
2026-05-08 11:31 57.70963 61.93443 34931 ft 470 kts 45°
2026-05-08 11:31 57.75500 62.02252 34926 ft 469 kts 43°
2026-05-08 11:32 57.80135 62.10845 34926 ft 469 kts 42°
2026-05-08 11:32 57.84753 62.19464 34928 ft 469 kts 43°
2026-05-08 11:33 57.89358 62.28166 34927 ft 469 kts 43°
2026-05-08 11:33 57.93959 62.36868 34943 ft 469 kts 43°
2026-05-08 11:34 57.98568 62.45552 34946 ft 469 kts 43°
2026-05-08 11:34 58.03174 62.54266 34939 ft 469 kts 42°
2026-05-08 11:35 58.07798 62.63014 34941 ft 471 kts 42°
2026-05-08 11:35 58.12401 62.71730 34938 ft 472 kts 42°
2026-05-08 11:36 58.17062 62.80588 34935 ft 471 kts 42°
2026-05-08 11:36 58.21662 62.89320 34956 ft 471 kts 42°
2026-05-08 11:37 58.26308 62.98137 34956 ft 473 kts 42°
2026-05-08 11:37 58.30950 63.07001 34953 ft 472 kts 42°
2026-05-08 11:38 58.35585 63.15828 34955 ft 472 kts 41°
2026-05-08 11:38 58.40230 63.24699 34958 ft 473 kts 41°
2026-05-08 11:39 58.44878 63.33596 34967 ft 473 kts 42°
2026-05-08 11:39 58.49519 63.42486 34965 ft 473 kts 41°
2026-05-08 11:40 58.54172 63.51394 34966 ft 473 kts 41°
2026-05-08 11:40 58.58805 63.60306 34964 ft 472 kts 42°
2026-05-08 11:41 58.63446 63.69230 34966 ft 472 kts 41°
2026-05-08 11:41 58.68091 63.78166 34965 ft 473 kts 42°
2026-05-08 11:42 58.72731 63.87127 34968 ft 474 kts 43°
2026-05-08 11:42 58.77249 63.96381 34964 ft 474 kts 44°
2026-05-08 11:43 58.81756 64.05664 34976 ft 474 kts 43°
2026-05-08 11:43 58.86311 64.14930 34974 ft 476 kts 43°
2026-05-08 11:44 58.90876 64.24201 34975 ft 476 kts 43°
2026-05-08 11:44 58.95413 64.33534 34975 ft 476 kts 43°
2026-05-08 11:45 58.99962 64.42862 34975 ft 476 kts 42°
2026-05-08 11:45 59.04499 64.52146 34975 ft 477 kts 42°
2026-05-08 11:46 59.09065 64.61518 34974 ft 478 kts 42°
2026-05-08 11:46 59.13638 64.70927 34976 ft 478 kts 42°
2026-05-08 11:47 59.18198 64.80323 34982 ft 477 kts 42°
2026-05-08 11:47 59.22629 64.89730 34017 ft 486 kts 42°
2026-05-08 11:47 59.25052 64.94151 28575 ft 437 kts 38°
2026-05-08 11:48 59.26262 64.97638 17383 ft 274 kts 85°
2026-05-08 11:48 59.26342 65.02713 6609 ft 458 kts 71°
2026-05-08 11:48 59.28422 65.07188 597 ft 123 kts 49°
2026-05-08 11:48 59.28987 65.07297 295 ft 6 kts
2026-05-08 11:49 59.28984 65.07296 293 ft 0 kts 22°